User: anonymous   Login
Location: Unspecified
(0.0000°N, 0.0000°E)
Time: 04:13:52
(UTC+02:00)
Language:

Cosmos 1536 - Orbit

View from above orbital plane
View from above orbital plane
View from above satellite
View from above satellite

Ground track
Ground track

The orbit data is extracted from the following two-line orbital elements,

1 14699U 84013A   15188.34702181  .00001030  00000-0  72491-4 0  9995
2 14699 082.5273 297.2770 0011934 324.3076 035.7351 15.03996890706204
Epoch (UTC): 07 July 2015 08:19:42
Eccentricity: 0.0011934
inclination: 82.5273°
perigee height: 546 km
apogee height: 563 km
right ascension of ascending node: 297.2770°
argument of perigee: 324.3076°
revolutions per day: 15.03996890
mean anomaly at epoch: 35.7351°
orbit number at epoch: 70620

The dashed part of the orbit path shows where the satellite is in the earth's shadow,  

DLR